Preview of NWS' New Version of Forecast
This preview is not operational and should not be used for support decisions.

Terminal Aerodrome Forecast (TAF)

Issued by National Weather Service (NWS)

                            
000
FTUS42 KKEY 231439 AAA
TAFEYW
TAF AMD
KEYW 231439Z 2315/2412 13007KT P6SM FEW020 SCT250=